Stations météo

Publicité
Paris-Montsouris, France (7156): Température de l'air & dewpoint: 21.04.2018 02:00:00 - 27.04.2018 02:00:00 (CEST)Paris-Montsouris, France (7156): Température de l'air 5cm: 21.04.2018 02:00:00 - 27.04.2018 02:00:00 (CEST)Paris-Montsouris, France (7156): Température de l'air -20cm & Température de l'air -100cm: 21.04.2018 02:00:00 - 27.04.2018 02:00:00 (CEST)Paris-Montsouris, France (7156): Vitesse du vent & gusts: 21.04.2018 02:00:00 - 27.04.2018 02:00:00 (CEST)Paris-Montsouris, France (7156): Direction du vent: 21.04.2018 02:00:00 - 27.04.2018 02:00:00 (CEST)Paris-Montsouris, France (7156): reduced air pressure: 21.04.2018 02:00:00 - 27.04.2018 02:00:00 (CEST)Paris-Montsouris, France (7156): visibility: 21.04.2018 02:00:00 - 27.04.2018 02:00:00 (CEST)Paris-Montsouris, France (7156): Ensoleillement: 21.04.2018 02:00:00 - 27.04.2018 02:00:00 (CEST)Paris-Montsouris, France (7156): Quantités de précipitations: 21.04.2018 02:00:00 - 27.04.2018 02:00:00 (CEST)
Date & Time tt [°C] td [°C] tt 5cm [°C] tt -20cm [°C] tt -100cm [°C] ff [km/h] ff [knt] fx [km/h] fx [knt] dd ppp [hPa] vv [km] sd [min] rr [mm]
27.04.2018 02:00:00 9,9 4,3 4,0 14,0 11,8 7 4 18 10 SSW 1016,7 20 0 0,0
27.04.2018 01:00:00 10,3 3,8 4,0 14,1 11,8 9 5 15 8 SSW 1017,3 20 0 0,0
27.04.2018 00:00:00 10,8 3,1 4,6 14,2 11,8 6 3 14 7 SSW 1017,7 20 0 0,0
26.04.2018 23:00:00 11,6 3,1 6,6 14,4 11,8 6 3 11 6 SSW 1018,0 20 0 0,0
26.04.2018 22:00:00 12,8 2,6 8,0 14,4 11,8 8 4 15 8 SW 1018,6 20 0 0,0
26.04.2018 21:00:00 13,6 1,2 9,6 14,5 11,8 10 5 21 12 W 1018,4 20 10 0,0
26.04.2018 20:00:00 14,3 2,8 12,6 14,5 11,8 8 4 21 11 SW 1018,7 20 0 0,0
26.04.2018 19:00:00 15,1 1,9 15,6 14,4 11,8 13 7 29 15 W 1018,8 20 50 0,0
26.04.2018 18:00:00 15,9 2,7 16,5 14,3 11,8 12 7 34 18 W 1019,2 20 35 0,0
26.04.2018 17:00:00 14,9 2,1 16,8 14,2 11,8 10 6 30 16 NW 1019,9 20 10 0,0
26.04.2018 16:00:00 15,9 0,4 17,4 14,0 11,8 11 6 32 17 W 1020,2 20 42 0,0
26.04.2018 15:00:00 15,3 2,1 17,6 13,8 11,8 13 7 34 18 WNW 1020,7 20 34 0,0
26.04.2018 14:00:00 15,8 2,6 21,4 13,7 11,8 12 6 45 24 W 1020,8 20 57 0,0
26.04.2018 13:00:00 14,4 3,8 14,9 13,5 11,8 12 7 38 20 W 1021,2 20 41 0,0
26.04.2018 12:00:00 12,9 2,4 15,3 13,5 11,8 13 7 33 18 WNW 1021,6 20 34 0,0
26.04.2018 11:00:00 12,0 4,0 15,7 13,4 11,8 13 7 35 19 WNW 1021,9 20 47 0,0
26.04.2018 10:00:00 11,2 4,9 10,3 13,5 11,7 11 6 36 19 WNW 1021,6 20 46 0,0
26.04.2018 09:00:00 9,7 5,3 7,5 13,6 11,7 11 6 28 15 W 1021,5 20 52 0,0
26.04.2018 08:00:00 8,2 4,6 6,0 13,7 11,8 10 5 27 14 W 1021,2 20 52 0,0
26.04.2018 07:00:00 7,9 4,5 6,1 13,8 11,8 11 6 31 17 W 1020,8 20 0 0,0
26.04.2018 06:00:00 8,2 4,6 5,4 13,9 11,7 15 8 37 20 W 1020,6 20 0 0,0
26.04.2018 05:00:00 8,5 4,3 6,5 14,0 11,7 11 6 34 18 W 1020,5 20 0 0,0
26.04.2018 04:00:00 8,9 4,5 6,5 14,1 11,7 15 8 34 18 W 1020,3 20 0 0,0
26.04.2018 03:00:00 9,4 4,2 7,1 14,3 11,7 11 6 37 20 W 1020,2 20 0 0,0
26.04.2018 02:00:00 10,1 3,8 7,7 14,4 11,7 14 8 38 20 W 1020,1 20 0 0,0
26.04.2018 01:00:00 10,8 3,3 8,5 14,5 11,7 11 6 35 19 W 1019,5 20 0 0,0
26.04.2018 00:00:00 11,5 2,8 8,6 14,6 11,7 13 7 34 18 W 1019,2 20 0 0,0
25.04.2018 23:00:00 12,1 3,3 8,7 14,7 11,7 10 5 27 15 W 1018,7 20 0 0,0
25.04.2018 22:00:00 13,1 3,5 9,1 14,8 11,7 8 4 33 18 W 1018,1 20 0 0,0
25.04.2018 21:00:00 14,2 3,0 12,0 14,8 11,7 15 8 38 21 WNW 1017,2 20 30 0,0
25.04.2018 20:00:00 15,0 3,8 13,5 14,9 11,7 17 9 47 26 WNW 1016,6 20 42 0,0
25.04.2018 19:00:00 15,7 3,8 15,7 14,8 11,7 19 10 47 25 WNW 1016,3 20 32 0,0
25.04.2018 18:00:00 16,4 5,0 17,2 14,8 11,7 18 10 48 26 WNW 1016,1 20 39 0,0
25.04.2018 17:00:00 16,7 6,2 17,8 14,7 11,6 14 8 41 22 NW 1016,2 20 49 0,0
25.04.2018 16:00:00 15,7 7,2 16,3 14,6 11,7 15 8 43 23 NW 1016,6 20 17 0,0
25.04.2018 15:00:00 15,6 8,1 17,5 14,5 11,6 17 9 44 24 W 1016,5 20 8 0,0
25.04.2018 14:00:00 15,5 10,0 13,8 14,5 11,6 10 5 34 18 W 1016,5 20 29 0,0
25.04.2018 13:00:00 13,1 10,6 13,4 14,4 11,6 13 7 35 19 W 1016,9 14 0 0,2
25.04.2018 12:00:00 14,5 10,3 13,7 14,4 11,6 13 7 34 18 WSW 1016,3 20 0 0,0
25.04.2018 11:00:00 14,6 10,0 14,6 14,4 11,6 13 7 32 17 SW 1016,0 20 0 0,0
25.04.2018 10:00:00 13,4 9,4 13,7 14,4 11,6 11 6 29 15 WSW 1015,9 20 0 0,0
25.04.2018 09:00:00 13,2 9,3 12,9 14,5 11,6 12 6 28 15 WSW 1015,6 20 0 0,0
25.04.2018 08:00:00 12,9 9,0 12,2 14,6 11,6 14 8 33 18 W 1014,9 20 0 0,0
25.04.2018 07:00:00 12,7 9,0 11,9 14,6 11,6 14 8 32 18 W 1014,4 20 0 0,0
25.04.2018 06:00:00 13,4 9,1 12,2 14,7 11,6 11 6 31 17 W 1014,0 20 0 0,0
25.04.2018 05:00:00 13,6 8,8 11,4 14,8 11,5 11 6 40 21 W 1013,8 20 0 0,0
25.04.2018 04:00:00 13,7 9,1 11,5 14,9 11,6 15 8 32 18 W 1013,6 20 0 0,0
25.04.2018 03:00:00 14,3 9,3 11,4 15,1 11,6 16 8 33 18 W 1013,6 20 0 0,0
25.04.2018 02:00:00 15,1 9,0 12,2 15,2 11,6 11 6 31 17 WSW 1013,5 20 0 0,0
25.04.2018 01:00:00 15,8 8,8 11,4 15,3 11,6 12 6 26 14 WSW 1013,7 20 0 0,0
25.04.2018 00:00:00 16,3 8,8 11,8 15,4 11,5 10 5 27 15 W 1014,3 20 0 0,0
24.04.2018 23:00:00 17,0 8,9 11,9 15,4 11,5 13 7 24 13 W 1014,3 20 0 0,0
24.04.2018 22:00:00 17,5 8,9 12,6 15,5 11,5 9 5 22 12 SW 1014,3 20 0 0,0
24.04.2018 21:00:00 18,5 9,0 15,1 15,6 11,5 10 5 28 15 SW 1014,2 20 26 0,0
24.04.2018 20:00:00 19,9 8,2 17,7 15,5 11,5 10 6 34 18 WSW 1014,4 20 60 0,0
24.04.2018 19:00:00 20,7 8,7 22,7 15,5 11,5 13 7 39 21 SW 1014,6 20 60 0,0
24.04.2018 18:00:00 21,1 9,0 24,5 15,3 11,5 14 8 37 20 SW 1015,6 20 60 0,0
24.04.2018 17:00:00 20,5 7,8 25,4 15,2 11,5 14 7 38 20 SW 1016,4 20 60 0,0
24.04.2018 16:00:00 20,7 9,0 27,7 15,0 11,5 12 7 32 17 SW 1017,3 20 60 0,0
24.04.2018 15:00:00 20,4 9,3 27,9 14,7 11,4 12 6 35 19 WSW 1017,9 20 60 0,0
24.04.2018 14:00:00 19,5 7,6 26,9 14,5 11,4 12 7 29 16 WSW 1018,8 20 60 0,0
24.04.2018 13:00:00 18,2 7,6 25,2 14,3 11,4 10 5 24 13 WSW 1019,6 20 60 0,0
24.04.2018 12:00:00 16,6 7,5 24,7 14,2 11,4 10 5 24 13 WSW 1020,3 20 60 0,0
24.04.2018 11:00:00 15,9 7,6 21,6 14,2 11,4 10 5 23 13 W 1020,4 20 60 0,0
24.04.2018 10:00:00 14,2 6,8 16,9 14,3 11,4 8 5 20 11 SW 1020,5 20 60 0,0
24.04.2018 09:00:00 12,1 6,2 8,6 14,4 11,4 9 5 16 9 SW 1020,6 20 53 0,0
24.04.2018 08:00:00 10,4 6,5 5,8 14,5 11,4 6 4 14 8 SW 1020,8 20 14 0,0
24.04.2018 07:00:00 10,2 5,8 6,6 14,6 11,4 6 3 18 10 W 1020,3 20 0 0,0
24.04.2018 06:00:00 10,4 6,0 5,8 14,7 11,4 9 5 15 8 W 1020,2 20 0 0,0
24.04.2018 05:00:00 10,4 5,8 5,9 14,9 11,3 6 3 15 8 WSW 1020,3 20 0 0,0
24.04.2018 04:00:00 11,1 6,2 6,4 15,1 11,3 6 3 21 11 W 1020,4 20 0 0,0
24.04.2018 03:00:00 11,5 6,0 7,7 15,2 11,3 5 3 26 14 WNW 1020,5 20 0 0,0
24.04.2018 02:00:00 12,0 6,3 8,8 15,3 11,3 7 4 19 11 NW 1020,8 20 0 0,0
24.04.2018 01:00:00 12,4 6,7 9,9 15,4 11,3 8 5 29 16 NW 1021,0 20 0 0,0
24.04.2018 00:00:00 13,1 7,1 10,6 15,5 11,3 11 6 25 13 NW 1020,9 20 0 0,0
23.04.2018 23:00:00 14,4 7,0 10,9 15,7 11,3 10 5 22 12 NNW 1020,5 20 0 0,0
23.04.2018 22:00:00 15,6 7,6 11,8 15,7 11,3 8 5 21 11 NNW 1019,8 20 0 0,0
23.04.2018 21:00:00 16,1 7,8 12,9 15,8 11,3 10 5 29 16 NW 1019,3 20 17 0,0
23.04.2018 20:00:00 17,3 7,9 15,5 15,8 11,3 11 6 24 13 NNW 1019,0 20 52 0,0
23.04.2018 19:00:00 18,3 7,4 18,7 15,7 11,2 10 5 27 15 WNW 1018,8 20 45 0,0
23.04.2018 18:00:00 19,2 8,5 21,2 15,6 11,2 11 6 33 18 WNW 1018,8 20 46 0,0
23.04.2018 17:00:00 18,7 8,4 21,2 15,5 11,2 10 6 30 16 WNW 1018,8 20 41 0,0
23.04.2018 16:00:00 19,3 9,2 25,3 15,3 11,2 10 5 27 15 WNW 1018,9 19 55 0,0
23.04.2018 15:00:00 18,4 8,6 22,0 15,2 11,2 9 5 39 21 W 1019,2 20 40 0,0
23.04.2018 14:00:00 17,9 8,5 20,8 15,1 11,2 9 5 35 19 W 1019,4 20 40 0,0
23.04.2018 13:00:00 17,0 8,7 18,7 15,1 11,2 13 7 28 15 W 1019,7 20 19 0,0
23.04.2018 12:00:00 15,1 8,6 15,5 15,1 11,2 8 4 25 13 NW 1019,8 20 0 0,0
23.04.2018 11:00:00 13,9 8,3 14,8 15,1 11,1 13 7 25 14 NNW 1019,7 20 0 0,0
23.04.2018 10:00:00 14,1 8,3 15,7 15,2 11,1 12 7 24 13 NNW 1019,1 20 13 0,0
23.04.2018 09:00:00 13,5 7,5 13,2 15,3 11,1 12 7 29 15 NW 1018,5 20 5 0,0
23.04.2018 08:00:00 13,6 6,9 12,5 15,3 11,1 16 8 34 18 NNW 1017,9 20 0 0,0
23.04.2018 07:00:00 14,2 7,0 11,8 15,5 11,1 9 5 27 14 NNW 1016,9 20 0 0,0
23.04.2018 06:00:00 14,3 7,6 11,8 15,6 11,1 10 6 24 13 N 1016,6 20 0 0,0
23.04.2018 05:00:00 15,4 10,2 12,6 15,6 11,1 9 5 25 14 NNW 1016,3 20 0 0,0
23.04.2018 04:00:00 16,2 10,3 13,8 15,7 11,1 11 6 23 12 NNW 1016,1 20 0 0,0
23.04.2018 03:00:00 17,2 11,5 15,5 15,8 11,0 15 8 29 16 NW 1015,5 20 0 0,0
23.04.2018 02:00:00 19,1 12,1 17,5 15,9 11,0 11 6 30 16 NW 1014,9 20 0 0,0
23.04.2018 01:00:00 19,9 12,4 16,9 16,0 11,1 5 3 16 9 W 1014,4 20 0 0,0
23.04.2018 00:00:00 20,6 12,3 18,8 16,1 11,0 6 4 23 12 NW 1014,2 20 0 0,0
22.04.2018 23:00:00 21,8 11,5 19,2 16,1 11,0 16 8 39 21 W 1013,4 20 0 0,0
22.04.2018 22:00:00 22,2 11,9 18,0 16,2 11,0 13 7 27 15 WSW 1012,9 20 0 0,0
22.04.2018 21:00:00 21,9 9,8 16,1 16,2 11,0 10 5 50 27 W 1012,4 20 0 0,0
22.04.2018 20:00:00 24,5 10,7 22,1 16,2 11,0 11 6 37 20 WSW 1012,0 20 11 0,0
22.04.2018 19:00:00 25,9 11,3 24,6 16,1 11,0 13 7 44 24 WSW 1011,6 18 45 0,0
22.04.2018 18:00:00 26,9 10,6 30,1 15,9 11,0 16 9 44 24 WSW 1011,5 20 58 0,0
22.04.2018 17:00:00 27,0 10,2 31,3 15,7 11,0 14 8 45 25 WSW 1011,5 19 60 0,0
22.04.2018 16:00:00 27,2 12,0 31,2 15,4 10,9 18 10 37 20 SW 1011,8 20 60 0,0
22.04.2018 15:00:00 26,4 10,5 30,4 15,2 10,9 19 10 45 24 SW 1012,1 20 60 0,0
22.04.2018 14:00:00 25,9 10,1 30,0 15,0 10,9 19 10 39 21 SW 1012,2 20 60 0,0
22.04.2018 13:00:00 24,6 11,5 29,0 14,7 10,9 21 11 39 21 SW 1012,5 19 58 0,0
22.04.2018 12:00:00 23,5 14,8 25,5 14,6 10,9 16 8 30 16 WSW 1013,0 20 42 0,0
22.04.2018 11:00:00 21,4 15,0 22,8 14,6 10,9 8 5 20 11 S 1013,0 20 34 0,0
22.04.2018 10:00:00 19,7 15,3 19,0 14,5 10,9 6 4 18 10 SSW 1012,9 20 53 0,0
22.04.2018 09:00:00 17,0 15,3 14,2 14,6 10,9 4 2 18 10 S 1012,8 17 54 0,0
22.04.2018 08:00:00 15,6 14,6 11,1 14,7 10,9 5 3 11 6 S 1012,4 14 34 0,0
22.04.2018 07:00:00 15,4 14,3 12,2 14,8 10,8 5 3 14 7 SSE 1012,5 13 0 0,0
22.04.2018 06:00:00 16,0 14,7 14,0 14,9 10,8 11 6 35 19 S 1012,7 10 0 1,4
22.04.2018 05:00:00 17,6 13,5 12,6 15,0 10,8 17 9 46 25 S 1013,5 2,4 0 3,3
22.04.2018 04:00:00 17,8 9,9 12,3 15,2 10,9 5 3 11 6 S 1013,8 20 0 0,0
22.04.2018 03:00:00 18,5 9,0 12,9 15,2 10,8 4 2 8 5 SSE 1014,3 20 0 0,0
22.04.2018 02:00:00 19,2 8,8 13,5 15,4 10,8 4 2 10 5 S 1015,0 20 0 0,0
22.04.2018 01:00:00 19,9 8,2 13,7 15,5 10,8 3 2 18 10 ESE 1015,0 20 0 0,0
22.04.2018 00:00:00 20,7 8,3 14,4 15,6 10,8 10 5 22 12 ESE 1015,0 20 0 0,0
21.04.2018 23:00:00 21,9 9,1 16,0 15,7 10,8 8 4 25 13 ESE 1015,4 20 0 0,0
21.04.2018 22:00:00 23,1 8,8 15,9 15,8 10,8 11 6 21 11 E 1015,9 20 0 0,0
21.04.2018 21:00:00 23,4 8,3 16,8 15,8 10,8 8 5 23 12 E 1016,2 20 13 0,0
21.04.2018 20:00:00 25,4 8,4 20,8 15,8 10,7 11 6 26 14 ESE 1015,9 20 60 0,0
21.04.2018 19:00:00 26,7 7,7 24,1 15,7 10,7 8 5 22 12 E 1016,2 20 49 0,0
21.04.2018 18:00:00 27,8 9,1 32,2 15,5 10,7 8 4 23 12 E 1016,7 20 60 0,0
21.04.2018 17:00:00 28,1 8,4 34,2 15,3 10,7 9 5 21 12 E 1017,2 20 60 0,0
21.04.2018 16:00:00 28,1 8,4 34,9 15,1 10,7 6 3 22 12 SE 1017,9 20 60 0,0
21.04.2018 15:00:00 27,9 8,7 34,9 14,8 10,7 11 6 25 14 ENE 1018,7 19 60 0,0
21.04.2018 14:00:00 27,3 10,1 33,4 14,5 10,7 8 5 19 11 E 1019,2 20 60 0,0
21.04.2018 13:00:00 26,4 9,7 31,3 14,3 10,7 9 5 23 12 E 1020,1 20 58 0,0
21.04.2018 12:00:00 25,7 11,8 30,9 14,1 10,7 8 5 26 14 E 1020,7 20 60 0,0
21.04.2018 11:00:00 24,5 11,4 28,5 14,0 10,7 8 4 21 11 E 1021,0 20 60 0,0
21.04.2018 10:00:00 23,3 12,0 22,6 14,0 10,6 7 4 16 9 E 1021,2 20 60 0,0
21.04.2018 09:00:00 19,5 11,3 13,1 14,1 10,6 4 2 10 5 NE 1021,4 20 60 0,0
21.04.2018 08:00:00 16,6 10,7 10,6 14,3 10,6 5 3 9 5 N 1021,5 20 48 0,0
21.04.2018 07:00:00 16,1 10,4 10,5 14,3 10,6 6 3 11 6 N 1021,3 20 0 0,0
21.04.2018 06:00:00 16,6 10,4 10,3 14,5 10,6 6 3 16 9 NNE 1021,2 20 0 0,0
21.04.2018 05:00:00 17,4 10,5 11,6 14,6 10,6 7 4 19 11 N 1021,5 20 0 0,0
21.04.2018 04:00:00 18,5 10,3 12,3 14,7 10,6 6 3 16 9 NNE 1021,4 20 0 0,0
21.04.2018 03:00:00 18,7 10,5 13,2 14,8 10,6 9 5 21 11 NE 1021,6 20 0 0,0
21.04.2018 02:00:00 19,3 10,8 13,7 14,9 10,6 9 5 27 15 NNE 1021,9 20 0 0,0

tt = Température de l'air
td = dewpoint
tt 5cm = Température de l'air 5cm
tt -20cm = Température de l'air -20cm
tt -100cm = Température de l'air -100cm
ff = Vitesse du vent
fx = gusts
dd = Direction du vent
ppp = reduced air pressure
vv = visibility
sd = Ensoleillement
rr = Quantités de précipitations

stations d'obs. à proximité